Location: *
(49.0044°N, 9.5056°E)
Time: 14:09:40
(UTC+00:00)

CZ-4C R/B - Pass Details

Date: 22 September 2019
Orbit: 654 x 1348 km, 63.4° (Epoch: 17 October)

Event Time Altitude Azimuth Distance (km) Brightness Sun altitude
Rises 19:11:25 0° 303° (WNW) 3,500 7.0 -18.5°
Reaches altitude 10° 19:14:18 10° 318° (NW) 2,674 5.8 -18.9°
Maximum altitude 19:19:24 24° 11° (N) 2,011 4.3 -19.7°
Enters shadow 19:24:40 12° 61° (ENE) 2,937 4.7 -20.5°
